KC2DUX Weather Reports


time (UTC)temp
C
wind
direction
speed
KPH
gust
KPH
rain 1hr
cm
rain 24hr
cm
rain mn
cm
humidity
%
barometer
mb
20260504120107 13 226 8.0 22.5 0.00 0.00 0.00 66 1015.4
20260504110530 11 209 6.4 12.9 0.00 0.00 0.00 73 1015.7
20260504100526 11 249 8.0 19.3 0.00 0.00 0.00 77 1015.7
20260504081520 10 222 9.7 22.5 0.00 0.00 0.00 73 1015.7
20260504081022 10 222 8.0 16.1 0.00 0.00 0.00 73 1015.7
20260504080519 10 236 8.0 16.1 0.00 0.00 0.00 73 1015.7
20260504050556 12 236 6.4 14.5 0.00 0.00 0.00 67 1015.3
20260504050131 12 230 8.0 16.1 0.00 0.00 0.00 66 1015.3
20260504045554 12 221 8.0 16.1 0.00 0.00 0.00 67 1015.4
20260504045053 11 233 8.0 16.1 0.00 0.00 0.00 67 1015.3
20260504044555 11 221 6.4 14.5 0.00 0.00 0.00 67 1015.3
20260504044052 11 217 6.4 12.9 0.00 0.00 0.00 67 1015.2
20260504043552 11 219 4.8 11.3 0.00 0.00 0.00 67 1015.2
20260504043058 11 253 4.8 12.9 0.00 0.00 0.00 68 1015.2
20260504042551 12 233 6.4 11.3 0.00 0.00 0.00 67 1015.1
20260504042052 12 211 6.4 11.3 0.00 0.00 0.00 67 1015.1
20260504041548 11 236 4.8 14.5 0.00 0.00 0.00 67 1015.1
20260504041047 11 232 4.8 12.9 0.00 0.00 0.00 68 1015.1
20260504040546 11 243 4.8 12.9 0.00 0.00 0.00 68 1015.0
20260504040044 11 218 4.8 11.3 0.00 0.00 0.00 68 1015.0
20260504035544 11 203 6.4 11.3 0.00 0.00 0.00 67 1015.0
20260504035044 11 217 3.2 11.3 0.00 0.00 0.00 67 1015.0
20260504034549 11 221 4.8 11.3 0.00 0.00 0.00 69 1015.0
20260504034042 11 217 3.2 8.0 0.00 0.00 0.00 69 1014.9
20260504033542 11 234 3.2 11.3 0.00 0.00 0.00 67 1014.8
20260504033045 11 214 4.8 9.7 0.00 0.00 0.00 65 1014.8
20260504032543 11 215 3.2 9.7 0.00 0.00 0.00 66 1014.8
20260504032041 11 236 3.2 9.7 0.00 0.00 0.00 66 1014.8
20260504031601 11 224 3.2 12.9 0.00 0.00 0.00 68 1014.8
20260504031041 11 213 4.8 12.9 0.00 0.00 0.00 68 1014.8
20260504030541 10 236 4.8 11.3 0.00 0.00 0.00 72 1014.8
20260504030041 10 252 0.0 6.4 0.00 0.00 0.00 72 1014.7
20260504025539 10 229 1.6 6.4 0.00 0.00 0.00 73 1014.7
20260504025039 10 281 0.0 6.4 0.00 0.00 0.00 73 1014.7
20260504024542 10 235 1.6 6.4 0.00 0.00 0.00 72 1014.7
20260504024039 10 239 0.0 3.2 0.00 0.00 0.00 71 1014.7
20260504023539 11 225 1.6 4.8 0.00 0.00 0.00 71 1014.7
20260504023039 11 245 0.0 6.4 0.00 0.00 0.00 69 1014.7
20260504022542 11 264 1.6 6.4 0.00 0.00 0.00 68 1014.7
20260504022039 11 292 1.6 9.7 0.00 0.00 0.00 67 1014.7
20260504021538 11 275 1.6 8.0 0.00 0.00 0.00 66 1014.7
20260504021037 11 266 3.2 8.0 0.00 0.00 0.00 66 1014.7
20260504020538 11 286 1.6 11.3 0.00 0.00 0.00 66 1014.7
20260504020039 11 242 1.6 11.3 0.00 0.00 0.00 66 1014.6
20260504015537 11 243 1.6 9.7 0.00 0.00 0.00 66 1014.6
20260504015035 11 223 1.6 9.7 0.00 0.00 0.00 68 1014.6
20260504014536 11 248 1.6 6.4 0.00 0.00 0.00 68 1014.6
20260504014035 11 250 1.6 6.4 0.00 0.00 0.00 68 1014.6
20260504013637 11 238 1.6 6.4 0.00 0.00 0.00 67 1014.6
20260504013036 11 217 1.6 4.8 0.00 0.00 0.00 66 1014.5
20260504012534 11 267 0.0 4.8 0.00 0.00 0.00 64 1014.5
20260504012033 11 234 0.0 3.2 0.00 0.00 0.00 63 1014.4
20260504011532 11 272 0.0 4.8 0.00 0.00 0.00 62 1014.4
20260504011031 11 247 1.6 4.8 0.00 0.00 0.00 61 1014.4
20260504010532 11 262 0.0 3.2 0.00 0.00 0.00 59 1014.2
20260504010030 11 248 0.0 3.2 0.00 0.00 0.00 58 1014.2
20260504005530 12 262 1.6 4.8 0.00 0.00 0.00 56 1014.1
20260504005029 12 236 1.6 4.8 0.00 0.00 0.00 54 1014.1
20260504004530 12 269 1.6 6.4 0.00 0.00 0.00 53 1014.0
20260504004029 12 234 1.6 6.4 0.00 0.00 0.00 52 1013.9
20260504003529 12 284 1.6 8.0 0.00 0.00 0.00 52 1013.7
20260504003028 12 285 1.6 8.0 0.00 0.00 0.00 52 1013.7
20260504002528 12 301 1.6 4.8 0.00 0.00 0.00 52 1013.7
20260504002028 12 246 1.6 8.0 0.00 0.00 0.00 52 1013.6
20260504001528 12 232 1.6 11.3 0.00 0.00 0.00 51 1013.6
20260504001028 12 240 1.6 11.3 0.00 0.00 0.00 50 1013.5
20260504000528 12 277 1.6 6.4 0.00 0.00 0.00 48 1013.5
20260504000027 12 271 1.6 9.7 0.00 0.00 0.00 46 1013.5
20260503235527 13 243 1.6 11.3 0.00 0.00 0.00 45 1013.4
20260503235027 13 254 3.2 11.3 0.00 0.00 0.00 44 1013.5
20260503234530 13 285 3.2 11.3 0.00 0.00 0.00 44 1013.4
20260503234031 13 219 3.2 11.3 0.00 0.00 0.00 43 1013.4
20260503233528 13 227 3.2 12.9 0.00 0.00 0.00 42 1013.4
20260503233026 13 250 3.2 12.9 0.00 0.00 0.00 42 1013.4
20260503232527 13 309 6.4 12.9 0.00 0.00 0.00 41 1013.3
20260503232026 13 279 4.8 19.3 0.00 0.00 0.00 40 1013.2
20260503231536 13 227 3.2 19.3 0.00 0.00 0.00 39 1013.2
20260503231026 14 240 4.8 17.7 0.00 0.00 0.00 38 1013.2
20260503230526 14 227 6.4 17.7 0.00 0.00 0.00 37 1013.2
20260503230025 14 221 3.2 20.9 0.00 0.00 0.00 37 1013.2
20260503225529 15 262 9.7 22.5 0.00 0.00 0.00 35 1013.2
20260503225027 15 30 4.8 20.9 0.00 0.00 0.00 34 1013.2
20260503224524 15 274 8.0 20.9 0.00 0.00 0.00 34 1013.1
20260503224027 15 232 3.2 16.1 0.00 0.00 0.00 34 1013.1
20260503223524 15 318 8.0 19.3 0.00 0.00 0.00 35 1013.1
20260503223026 15 301 6.4 22.5 0.00 0.00 0.00 34 1013.1
20260503222524 15 271 8.0 22.5 0.00 0.00 0.00 34 1013.0
20260503222023 15 282 8.0 25.7 0.00 0.00 0.00 35 1012.9
20260503221523 15 297 3.2 25.7 0.00 0.00 0.00 35 1013.1
20260503221023 15 110 9.7 20.9 0.00 0.00 0.00 33 1013.1
20260503220526 15 37 8.0 25.7 0.00 0.00 0.00 34 1013.0
20260503220031 15 261 8.0 24.1 0.00 0.00 0.00 34 1013.0
20260503215521 15 259 11.3 35.4 0.00 0.00 0.00 34 1013.0
20260503215022 15 274 9.7 35.4 0.00 0.00 0.00 34 1013.1
20260503214522 15 304 14.5 29.0 0.00 0.00 0.00 33 1012.9
20260503214024 15 355 8.0 25.7 0.00 0.00 0.00 33 1012.8
20260503213521 15 286 11.3 29.0 0.00 0.00 0.00 33 1012.9
20260503213027 15 9 11.3 29.0 0.00 0.00 0.00 35 1012.7
20260503212522 15 262 8.0 24.1 0.00 0.00 0.00 34 1012.7
20260503212020 15 222 6.4 24.1 0.00 0.00 0.00 34 1012.7
20260503211523 15 71 8.0 24.1 0.00 0.00 0.00 32 1012.7
20260503211023 15 293 4.8 22.5 0.00 0.00 0.00 33 1012.6
20260503210520 15 42 8.0 24.1 0.00 0.00 0.00 33 1012.6
20260503210020 15 207 8.0 25.7 0.00 0.00 0.00 33 1012.7
20260503205521 15 274 9.7 25.7 0.00 0.00 0.00 33 1012.7
20260503205024 15 240 6.4 24.1 0.00 0.00 0.00 33 1012.6
20260503204520 15 342 11.3 24.1 0.00 0.00 0.00 34 1012.7
20260503204019 15 340 8.0 24.1 0.00 0.00 0.00 34 1012.8
20260503203518 15 312 3.2 22.5 0.00 0.00 0.00 36 1012.8
20260503203023 15 212 4.8 27.4 0.00 0.00 0.00 35 1012.7
20260503202517 15 130 11.3 27.4 0.00 0.00 0.00 32 1012.8
20260503202017 15 262 11.3 27.4 0.00 0.00 0.00 33 1012.9
20260503201523 15 314 8.0 27.4 0.00 0.00 0.00 33 1012.8
20260503201016 15 267 9.7 27.4 0.00 0.00 0.00 33 1012.8
20260503200516 15 262 9.7 20.9 0.00 0.00 0.00 33 1012.8
20260503200016 15 126 4.8 22.5 0.00 0.00 0.00 33 1012.9
20260503195515 15 340 9.7 24.1 0.00 0.00 0.00 33 1012.9
20260503195015 15 291 6.4 24.1 0.00 0.00 0.00 37 1012.8
20260503194522 15 204 9.7 22.5 0.00 0.00 0.00 35 1012.8
20260503194014 15 44 8.0 19.3 0.00 0.00 0.00 33 1012.7
20260503193514 15 259 8.0 24.1 0.00 0.00 0.00 35 1012.9
20260503193012 14 290 6.4 27.4 0.00 0.00 0.00 36 1012.8
20260503192512 14 5 11.3 27.4 0.00 0.00 0.00 34 1013.0
20260503192011 14 283 8.0 25.7 0.00 0.00 0.00 35 1012.9
20260503191512 14 28 9.7 25.7 0.00 0.00 0.00 34 1013.1
20260503191016 15 348 4.8 20.9 0.00 0.00 0.00 35 1013.1
20260503190510 14 49 4.8 14.5 0.00 0.00 0.00 35 1013.1
20260503190012 13 279 3.2 20.9 0.00 0.00 0.00 39 1013.2
20260503185511 13 355 6.4 30.6 0.00 0.00 0.00 37 1013.2
20260503185008 13 28 11.3 30.6 0.00 0.00 0.00 35 1013.2
20260503184509 13 309 9.7 27.4 0.00 0.00 0.00 37 1013.4
20260503184010 13 5 6.4 29.0 0.00 0.00 0.00 38 1013.4
20260503183508 13 285 11.3 29.0 0.00 0.00 0.00 36 1013.4
20260503183006 13 20 6.4 25.7 0.00 0.00 0.00 38 1013.4
20260503182509 13 302 6.4 22.5 0.00 0.00 0.00 38 1013.3
20260503182006 13 231 6.4 24.1 0.00 0.00 0.00 37 1013.4
20260503181507 13 299 8.0 24.1 0.00 0.00 0.00 37 1013.5
20260503181006 13 319 4.8 24.1 0.00 0.00 0.00 39 1013.5
20260503180504 13 23 6.4 25.7 0.00 0.00 0.00 39 1013.3
20260503180009 12 5 1.6 25.7 0.00 0.00 0.00 41 1013.4
20260503175502 12 290 4.8 22.5 0.00 0.00 0.00 40 1013.4
20260503175002 12 38 9.7 22.5 0.00 0.00 0.00 40 1013.4
20260503174505 12 324 8.0 25.7 0.00 0.00 0.00 40 1013.2
20260503174005 13 262 12.9 25.7 0.00 0.00 0.00 38 1013.4
20260503173501 13 355 4.8 22.5 0.00 0.00 0.00 39 1013.3
20260503173131 13 77 8.0 27.4 0.00 0.00 0.00 38 1013.5
20260503172559 13 329 11.3 27.4 0.00 0.00 0.00 38 1013.4
20260503172102 12 302 8.0 27.4 0.00 0.00 0.00 40 1013.4
20260503171559 12 55 8.0 20.9 0.00 0.00 0.00 40 1013.4
20260503171058 12 344 6.4 22.5 0.00 0.00 0.00 40 1013.5
20260503170558 12 47 3.2 19.3 0.00 0.00 0.00 41 1013.6
20260503150548 11 346 6.4 20.9 0.00 0.00 0.00 43 1014.0
20260503131037 10 42 8.0 24.1 0.00 0.00 0.00 54 1013.6
20260503130537 10 24 8.0 20.9 0.00 0.00 0.00 56 1013.6